Stations météo

réclame
Mon MeteoGroup
St-Sauveur, France (7300): Température de l'air & dewpoint: 05.12.2017 10:00:00 - 11.12.2017 10:00:00 (CET)St-Sauveur, France (7300): Vitesse du vent & gusts: 05.12.2017 10:00:00 - 11.12.2017 10:00:00 (CET)St-Sauveur, France (7300): Direction du vent: 05.12.2017 10:00:00 - 11.12.2017 10:00:00 (CET)St-Sauveur, France (7300): reduced air pressure: 05.12.2017 10:00:00 - 11.12.2017 10:00:00 (CET)St-Sauveur, France (7300): visibility: 05.12.2017 10:00:00 - 11.12.2017 10:00:00 (CET)St-Sauveur, France (7300): Quantités de précipitations: 05.12.2017 10:00:00 - 11.12.2017 10:00:00 (CET)
Date & Time tt [°C] td [°C] ff [km/h] ff [knt] fx [km/h] fx [knt] dd ppp [hPa] vv [km] rr [mm]
11.12.2017 10:00:00 8,5 5,2 44 24 95 52 WNW 978,5 6 0,0
11.12.2017 09:00:00 8,2 6,0 40 21 104 56 WNW 976,2 - 0,0
11.12.2017 08:00:00 7,9 5,9 50 27 116 62 W 973,5 - 0,0
11.12.2017 07:00:00 7,5 5,3 50 27 118 64 W 969,8 5 0,0
11.12.2017 06:00:00 8,1 6,7 56 30 128 69 W 965,2 - 0,0
11.12.2017 05:00:00 10,5 7,7 52 28 118 64 WSW 961,8 - 0,0
11.12.2017 04:00:00 10,6 8,0 66 36 134 72 SW 962,0 6 0,0
11.12.2017 03:00:00 10,7 6,8 96 52 137 74 SSW 965,1 - 0,2
11.12.2017 02:00:00 10,7 9,3 68 37 119 64 SSW 967,7 - 1,4
11.12.2017 01:00:00 11,6 11,3 34 18 64 35 S 971,5 6 5,1
11.12.2017 00:00:00 11,6 11,1 36 19 61 33 S 974,3 - 1,0
10.12.2017 23:00:00 11,0 10,4 35 19 61 33 S 976,7 - 1,4
10.12.2017 22:00:00 10,5 9,9 20 11 38 21 SSE 979,2 - 0,4
10.12.2017 21:00:00 9,8 7,7 18 10 33 18 S 982,0 - 0,0
10.12.2017 20:00:00 10,4 9,3 18 10 38 21 SSW 984,3 - 0,4
10.12.2017 19:00:00 11,0 9,6 19 10 43 23 SW 986,6 - 0,2
10.12.2017 18:00:00 11,7 9,8 26 14 49 27 WSW 987,7 - 0,0
10.12.2017 17:00:00 11,7 9,4 20 11 54 29 W 989,0 - 0,2
10.12.2017 16:00:00 11,6 9,0 27 14 62 34 W 989,5 6 1,2
10.12.2017 15:00:00 11,9 9,8 31 17 71 38 W 990,8 - 1,2
10.12.2017 14:00:00 12,9 9,7 29 15 59 32 WSW 991,7 - 0,0
10.12.2017 13:00:00 12,5 8,6 25 14 60 32 W 993,2 6 0,0
10.12.2017 12:00:00 12,3 8,6 29 16 66 36 W 994,9 - 0,0
10.12.2017 11:00:00 12,0 7,3 34 18 68 37 WNW 994,9 - 0,0
10.12.2017 10:00:00 12,2 9,4 34 18 72 39 WNW 994,5 6 0,0
10.12.2017 09:00:00 12,2 10,6 32 18 77 42 W 994,5 - 0,0
10.12.2017 08:00:00 11,9 10,6 44 24 104 56 WNW 994,8 - 2,2
10.12.2017 07:00:00 13,7 13,4 40 22 80 43 WSW 994,6 - 0,4
10.12.2017 06:00:00 13,6 13,1 39 21 74 40 WSW 996,3 - 0,0
10.12.2017 05:00:00 13,6 13,3 32 17 70 38 WSW 998,3 - 1,0
10.12.2017 04:00:00 13,5 13,2 25 14 54 29 W 999,9 6 0,2
10.12.2017 03:00:00 13,3 13,0 24 13 54 29 W 1001,2 - 0,0
10.12.2017 02:00:00 13,3 13,0 25 13 48 26 W 1002,3 - 0,0
10.12.2017 01:00:00 13,0 12,7 18 10 39 21 W 1003,7 10 0,2
10.12.2017 00:00:00 11,9 11,7 32 17 58 31 S 1004,8 - 0,7
09.12.2017 23:00:00 10,3 10,0 36 20 65 35 S 1006,6 - 0,6
09.12.2017 22:00:00 9,6 9,3 35 19 59 32 S 1008,6 10 1,4
09.12.2017 21:00:00 8,8 8,2 36 19 56 31 S 1010,1 - 0,6
09.12.2017 20:00:00 8,1 7,0 35 19 55 30 S 1011,8 - 0,8
09.12.2017 19:00:00 8,0 6,9 34 18 49 27 S 1013,7 15 1,2
09.12.2017 18:00:00 7,6 6,1 26 14 41 22 S 1014,8 - 1,0
09.12.2017 17:00:00 8,8 3,6 29 15 39 21 SSW 1016,4 - 0,0
09.12.2017 16:00:00 8,9 2,5 17 9 41 22 SW 1017,5 18 0,0
09.12.2017 15:00:00 9,3 2,6 19 10 31 17 SSW 1019,1 - 0,0
09.12.2017 14:00:00 9,6 2,0 11 6 24 13 SW 1020,6 - 0,0
09.12.2017 13:00:00 9,2 3,0 9 5 18 10 WSW 1021,9 - 0,0
09.12.2017 12:00:00 8,9 3,3 9 5 22 12 WSW 1023,1 - 0,0
09.12.2017 11:00:00 7,8 3,1 9 5 26 14 W 1024,0 - 0,2
09.12.2017 10:00:00 7,0 2,5 10 6 19 10 WNW 1024,1 25 0,0
09.12.2017 09:00:00 6,2 1,9 12 6 23 12 WNW 1024,4 - 0,0
09.12.2017 08:00:00 5,7 2,0 13 7 42 23 WNW 1024,8 - 0,0
09.12.2017 07:00:00 7,0 1,1 12 6 24 13 NW 1024,7 - 0,0
09.12.2017 06:00:00 7,6 1,0 16 8 45 24 NW 1025,0 - 0,0
09.12.2017 05:00:00 7,8 1,0 16 9 32 18 NNW 1025,5 - 0,0
09.12.2017 04:00:00 7,4 -0,6 20 11 35 19 NW 1025,9 20 0,0
09.12.2017 03:00:00 6,8 -1,4 16 9 41 22 NW 1025,9 - 0,0
09.12.2017 02:00:00 7,0 -0,5 18 10 39 21 NNW 1026,2 - 0,0
09.12.2017 01:00:00 7,3 -1,7 21 12 42 23 NNW 1026,6 20 0,0
09.12.2017 00:00:00 7,4 -0,6 20 11 46 25 NNW 1026,8 - 0,0
08.12.2017 23:00:00 7,6 -0,6 26 14 53 29 NNW 1026,8 - 0,0
08.12.2017 22:00:00 7,4 -1,1 22 12 44 24 NNW 1026,8 - 0,0
08.12.2017 21:00:00 7,5 -1,0 24 13 47 26 NNW 1026,7 - 0,0
08.12.2017 20:00:00 7,9 0,4 24 13 54 29 NNW 1026,6 - 0,0
08.12.2017 19:00:00 7,7 -0,5 27 15 48 26 NW 1026,3 - 0,0
08.12.2017 18:00:00 7,5 -0,7 23 12 42 23 NW 1025,9 - 0,0
08.12.2017 17:00:00 7,7 0,2 21 12 47 26 NW 1025,8 - 0,0
08.12.2017 16:00:00 8,8 -0,3 27 15 46 25 NW 1025,6 20 0,0
08.12.2017 15:00:00 8,8 0,7 23 13 45 24 NW 1025,7 - 0,0
08.12.2017 14:00:00 9,7 0,8 27 15 51 28 NNW 1025,6 - 0,0
08.12.2017 13:00:00 10,0 1,4 23 13 46 25 NNW 1025,9 20 0,0
08.12.2017 12:00:00 9,7 0,6 28 15 54 29 NNW 1026,1 - 0,0
08.12.2017 11:00:00 9,5 1,4 31 17 55 30 NW 1026,0 - 0,0
08.12.2017 10:00:00 8,7 1,8 23 12 48 26 NW 1025,2 20 0,0
08.12.2017 09:00:00 8,5 2,3 24 13 46 25 NNW 1024,6 - 0,0
08.12.2017 08:00:00 8,7 0,9 26 14 51 28 NW 1024,0 - 0,0
08.12.2017 07:00:00 8,7 3,5 22 12 41 22 NW 1023,4 - 0,0
08.12.2017 06:00:00 7,3 4,9 17 9 49 27 NW 1023,1 - 0,6
08.12.2017 05:00:00 9,4 3,4 19 10 45 24 NW 1022,6 - 0,0
08.12.2017 04:00:00 10,0 2,8 21 11 44 24 NNW 1022,5 15 0,0
08.12.2017 03:00:00 9,3 3,7 17 9 39 21 NW 1022,3 - 0,0
08.12.2017 02:00:00 9,1 4,9 20 11 36 20 NW 1021,9 - 0,0
08.12.2017 01:00:00 9,0 5,4 17 9 33 18 NW 1021,9 15 0,0
08.12.2017 00:00:00 8,7 4,9 14 7 45 24 NW 1021,3 - 0,0
07.12.2017 23:00:00 9,3 5,3 24 13 49 27 NNW 1021,2 - 0,0
07.12.2017 22:00:00 9,1 7,9 24 13 48 26 NNW 1020,8 10 0,2
07.12.2017 21:00:00 10,0 9,1 19 11 45 25 NNW 1019,5 - 0,6
07.12.2017 20:00:00 10,4 9,5 24 13 47 25 WNW 1019,4 - 0,4
07.12.2017 19:00:00 10,8 10,0 20 11 37 20 NW 1018,8 - 0,2
07.12.2017 18:00:00 11,8 11,3 21 11 39 21 NW 1018,5 - 0,2
07.12.2017 17:00:00 13,0 12,7 17 9 49 26 W 1017,6 - 0,4
07.12.2017 16:00:00 13,3 13,0 23 12 60 32 WSW 1017,6 0,8 0,6
07.12.2017 15:00:00 13,4 12,9 27 14 71 38 WSW 1017,7 - 0,4
07.12.2017 14:00:00 13,1 12,6 41 22 65 35 SW 1018,2 - 0,8
07.12.2017 13:00:00 12,8 12,3 41 22 70 38 SW 1019,4 5 0,4
07.12.2017 12:00:00 12,9 12,4 41 22 68 37 SW 1020,4 - 1,0
07.12.2017 11:00:00 12,6 12,1 40 21 67 36 SW 1021,0 - 0,4
07.12.2017 10:00:00 12,3 11,4 42 23 68 37 SW 1021,3 - 0,2
07.12.2017 09:00:00 12,1 10,8 42 23 66 36 SW 1021,6 - 0,2
07.12.2017 08:00:00 12,4 10,3 39 21 65 35 SSW 1022,2 - 0,0
07.12.2017 07:00:00 12,0 10,6 46 25 61 33 SSW 1022,7 - 0,0
07.12.2017 06:00:00 11,7 9,4 45 25 63 34 SSW 1023,5 - 0,0
07.12.2017 05:00:00 11,4 8,8 41 22 57 31 SSW 1024,3 - 0,0
07.12.2017 04:00:00 10,9 8,8 34 19 54 29 SSW 1024,9 15 0,0
07.12.2017 03:00:00 11,2 7,9 35 19 51 27 SSW 1025,4 - 0,0
07.12.2017 02:00:00 9,6 8,0 28 15 53 29 S 1026,1 - 0,0
07.12.2017 01:00:00 8,9 7,2 26 14 44 24 S 1027,1 10 0,0
07.12.2017 00:00:00 7,9 6,5 27 14 47 25 SSE 1028,0 - 0,0
06.12.2017 23:00:00 8,0 6,3 24 13 45 25 SSE 1028,3 - 0,0
06.12.2017 22:00:00 7,8 6,1 23 13 46 25 SSE 1028,9 10 0,0
06.12.2017 21:00:00 8,4 6,2 23 12 43 23 SSE 1029,3 - 0,0
06.12.2017 20:00:00 8,7 5,8 26 14 41 22 SSE 1029,7 - 0,0
06.12.2017 19:00:00 8,9 4,3 19 11 33 18 SSE 1030,1 - 0,0
06.12.2017 18:00:00 8,8 3,2 15 8 28 15 SSE 1030,4 - 0,0
06.12.2017 17:00:00 8,9 3,9 16 8 28 15 SE 1030,7 - 0,0
06.12.2017 16:00:00 9,1 4,1 17 9 27 14 SE 1031,1 20 0,0
06.12.2017 15:00:00 9,2 4,0 11 6 23 12 SSE 1031,7 - 0,0
06.12.2017 14:00:00 10,8 3,6 12 7 25 13 SSE 1032,4 - 0,0
06.12.2017 13:00:00 10,9 3,7 14 8 27 15 SSE 1033,2 20 0,0
06.12.2017 12:00:00 11,3 5,6 15 8 25 13 SE 1033,7 - 0,0
06.12.2017 11:00:00 10,4 4,5 13 7 26 14 SE 1034,3 - 0,0
06.12.2017 10:00:00 8,7 4,7 14 8 24 13 SE 1034,3 - 0,0
06.12.2017 09:00:00 8,1 4,3 13 7 24 13 SE 1034,4 - 0,0
06.12.2017 08:00:00 8,5 3,7 14 7 27 14 SE 1034,4 - 0,0
06.12.2017 07:00:00 8,5 3,5 13 7 25 14 ESE 1034,6 25 0,0
06.12.2017 06:00:00 8,8 1,9 10 6 22 12 SE 1034,8 - 0,0
06.12.2017 05:00:00 8,5 1,9 9 5 21 12 ESE 1035,3 - 0,0
06.12.2017 04:00:00 8,8 1,5 9 5 19 10 SE 1035,7 20 0,0
06.12.2017 03:00:00 8,7 2,0 10 5 19 10 ESE 1036,0 - 0,0
06.12.2017 02:00:00 7,7 2,2 8 4 16 9 ESE 1036,5 - 0,0
06.12.2017 01:00:00 8,7 1,6 9 5 22 12 ESE 1036,8 20 0,0
06.12.2017 00:00:00 9,2 1,6 11 6 22 12 SE 1037,3 - 0,0
05.12.2017 23:00:00 9,1 2,0 9 5 22 12 ESE 1037,4 - 0,0
05.12.2017 22:00:00 9,4 2,5 8 4 22 12 SE 1037,7 20 0,0
05.12.2017 21:00:00 9,6 2,0 11 6 25 13 SE 1037,8 - 0,0
05.12.2017 20:00:00 9,6 2,7 12 6 24 13 ESE 1037,6 - 0,0
05.12.2017 19:00:00 9,7 3,0 13 7 24 13 SE 1037,7 - 0,0
05.12.2017 18:00:00 9,7 3,4 10 5 22 12 SE 1037,7 - 0,0
05.12.2017 17:00:00 9,9 3,2 10 6 23 12 SSE 1037,8 - 0,0
05.12.2017 16:00:00 10,4 4,5 12 7 24 13 SSE 1037,7 20 0,0
05.12.2017 15:00:00 10,5 4,0 13 7 27 15 SE 1037,9 - 0,0
05.12.2017 14:00:00 10,7 6,8 14 7 26 14 SSE 1038,2 - 0,0
05.12.2017 13:00:00 10,9 6,0 14 8 26 14 SE 1038,6 10 0,0
05.12.2017 12:00:00 10,3 7,4 14 7 25 13 SE 1039,0 - 0,0
05.12.2017 11:00:00 10,0 7,8 11 6 23 12 ESE 1039,1 - 0,0
05.12.2017 10:00:00 9,4 7,3 10 6 19 11 ESE 1038,9 10 0,0

tt = Température de l'air
td = dewpoint
ff = Vitesse du vent
fx = gusts
dd = Direction du vent
ppp = reduced air pressure
vv = visibility
rr = Quantités de précipitations

stations d'obs. à proximité